Change the Weather History Date:

Tuesday, May 28, 2013

  Actual Average Record
Temperature  
Mean Temperature 75 °F 70 °F  
Max Temperature 86 °F 81 °F 94 °F (1914)
Min Temperature 64 °F 60 °F 41 °F (1961)
Degree Days  
Heating Degree Days 0 1  
Month to date heating degree days 69 57  
Since 1 July heating degree days 3625 3632  
Cooling Degree Days 10 6  
Month to date cooling degree days 93 105  
Year to date cooling degree days 124 142  
Growing Degree Days 25 (Base 50)    
Moisture  
Dew Point 59 °F    
Average Humidity 59    
Maximum Humidity 78    
Minimum Humidity 40    
Precipitation  
Precipitation 0.00 in 0.13 in 2.24 in (1982)
Month to date precipitation 3.52 4.09  
Year to date precipitation 31.42 21.02  
Snow  
Snow 0.00 in 0.00 in - ()
Month to date snowfall 0.0 0.0  
Since 1 July snowfall 3.8 6.5  
Snow Depth 0.00 in    
Sea Level Pressure  
Sea Level Pressure 30.10 in    
Wind  
Wind Speed 8 mph (SW)    
Max Wind Speed 17 mph    
Max Gust Speed 29 mph    
Visibility 10 miles    
Events      
T = Trace of Precipitation, MM = Missing Value Source: NWS Daily Summary

Daily Weather History Graph

Daily Weather History Graph

Search for Another Location

Airport or City:

Trip Planner

Search our weather history database for the weather conditions in past years. The results will help you decide how hot, cold, wet, or windy it might be!

Date:

Astronomy

May. 28, 2013 Rise Set
Actual Time 6:22 AM EDT 8:44 PM EDT
Civil Twilight 5:53 AM EDT 9:13 PM EDT
Nautical Twilight 5:16 AM EDT 9:50 PM EDT
Astronomical Twilight 4:37 AM EDT 10:29 PM EDT
Moon No Moon Rise 10:06 AM EDT (5/28)
Length of Visible Light 15h 20m
Length of Day
14h 21m
Waning Gibbous, 83% of the Moon is Illuminated
May 28
Waning Gibbous
May 31
Last Quarter
Jun 8
New
Jun 16
First Quarter
Jun 23
Full

Hourly Weather History & Observations

Time (EDT) Temp. Heat Index Dew Point Humidity Pressure Visibility Wind Dir Wind Speed Gust Speed Precip Events Conditions
12:53 AM 68.0 °F - 57.9 °F 70% 30.09 in 10.0 mi SSE 3.5 mph - N/A   Mostly Cloudy
1:53 AM 69.1 °F - 57.9 °F 68% 30.08 in 10.0 mi SW 4.6 mph - N/A   Mostly Cloudy
2:53 AM 69.1 °F - 57.0 °F 65% 30.07 in 10.0 mi SSW 4.6 mph - N/A   Mostly Cloudy
3:53 AM 68.0 °F - 57.0 °F 68% 30.06 in 10.0 mi WSW 5.8 mph - N/A   Scattered Clouds
4:53 AM 66.0 °F - 57.0 °F 73% 30.08 in 10.0 mi SW 6.9 mph - N/A   Scattered Clouds
5:53 AM 68.0 °F - 57.0 °F 68% 30.10 in 10.0 mi SW 3.5 mph - N/A   Mostly Cloudy
6:53 AM 66.0 °F - 59.0 °F 78% 30.12 in 10.0 mi Calm Calm - N/A   Mostly Cloudy
7:53 AM 69.1 °F - 60.1 °F 73% 30.14 in 10.0 mi Calm Calm - N/A   Mostly Cloudy
8:53 AM 72.0 °F - 62.1 °F 71% 30.16 in 10.0 mi West 5.8 mph - N/A   Mostly Cloudy
9:53 AM 75.9 °F - 60.1 °F 58% 30.15 in 10.0 mi South 10.4 mph - N/A   Mostly Cloudy
10:01 AM 75.2 °F - 60.8 °F 61% 30.19 in 10.0 mi SSW 12.7 mph - N/A   Mostly Cloudy
10:53 AM 79.0 °F - 59.0 °F 50% 30.15 in 10.0 mi SSW 12.7 mph 23.0 mph N/A   Scattered Clouds
11:53 AM 82.0 °F 82.4 °F 60.1 °F 47% 30.15 in 10.0 mi WSW 15.0 mph - N/A   Mostly Cloudy
12:53 PM 82.0 °F 82.1 °F 59.0 °F 45% 30.14 in 10.0 mi WSW 10.4 mph - N/A   Scattered Clouds
1:53 PM 84.9 °F 84.8 °F 60.1 °F 43% 30.10 in 10.0 mi SW 17.3 mph 23.0 mph N/A   Scattered Clouds
2:53 PM 84.0 °F 83.5 °F 57.9 °F 41% 30.10 in 10.0 mi Variable 6.9 mph - N/A   Mostly Cloudy
3:53 PM 84.9 °F 84.2 °F 57.9 °F 40% 30.08 in 10.0 mi SW 10.4 mph 18.4 mph N/A   Scattered Clouds
4:53 PM 84.9 °F 84.4 °F 59.0 °F 41% 30.07 in 10.0 mi SW 10.4 mph 16.1 mph N/A   Scattered Clouds
5:53 PM 84.9 °F 84.4 °F 59.0 °F 41% 30.06 in 10.0 mi West 6.9 mph - N/A   Scattered Clouds
6:53 PM 84.0 °F 84.0 °F 60.1 °F 44% 30.05 in 10.0 mi SW 5.8 mph - N/A   Scattered Clouds
7:53 PM 80.1 °F 81.1 °F 61.0 °F 52% 30.06 in 10.0 mi SW 8.1 mph - N/A   Scattered Clouds
8:53 PM 75.0 °F - 60.1 °F 60% 30.06 in 10.0 mi SSW 9.2 mph - N/A   Scattered Clouds
9:53 PM 75.0 °F - 55.9 °F 51% 30.06 in 10.0 mi South 9.2 mph - N/A   Clear
10:53 PM 73.0 °F - 55.9 °F 55% 30.09 in 10.0 mi South 6.9 mph - N/A   Clear
11:53 PM 73.0 °F - 55.9 °F 55% 30.08 in 10.0 mi South 9.2 mph - N/A   Clear